When you browse on this site, cookies collect data to enhance your experience and personalize the content and advertising you see.
Visit our Privacy Policy to learn more. By continuing to use the site, you agree to this use of cookies and data.
  • In Denmark
  • List of Countries
  • For 7 days
  • Water Temperature
  • Satellite Maps
  • Weather Map
  • Weather Widgets
  • user-avatar
    Login

    Hourly Weather Wien

    Today, 26 June, Wednesday

    Time Temperature Precipitation Wind Pressure Humidity
    00:00 +25°C° 0 mm 2 mps 750 mmHg 75%
    01:00 +24°C° 0 mm 2 mps 750 mmHg 79%
    02:00 +24°C° 0 mm 2 mps 750 mmHg 81%
    03:00 +23°C° 0 mm 2 mps 749 mmHg 83%
    04:00 +23°C° 0 mm 2 mps 749 mmHg 84%
    05:00 +24°C° 0 mm 2 mps 749 mmHg 80%
    06:00 +25°C° 0 mm 2 mps 750 mmHg 75%
    07:00 +27°C° 0 mm 2 mps 750 mmHg 70%
    08:00 +29°C° 0 mm 2 mps 750 mmHg 64%
    09:00 +30°C° 0 mm 2 mps 750 mmHg 58%
    10:00 +33°C° 0 mm 3 mps 750 mmHg 51%
    11:00 +34°C° 0 mm 3 mps 750 mmHg 48%
    12:00 +35°C° 0 mm 3 mps 750 mmHg 45%
    13:00 +37°C° 0 mm 2 mps 750 mmHg 41%
    14:00 +36°C° 0 mm 2 mps 749 mmHg 42%
    15:00 +36°C° 0 mm 2 mps 749 mmHg 43%
    16:00 +36°C° 0 mm 3 mps 748 mmHg 44%
    17:00 +35°C° 0 mm 2 mps 748 mmHg 50%
    18:00 +32°C° 0 mm 2 mps 748 mmHg 56%
    19:00 +31°C° 0 mm 1 mps 748 mmHg 62%
    20:00 +30°C° 0 mm 1 mps 748 mmHg 64%
    21:00 +29°C° 0 mm 1 mps 748 mmHg 66%
    22:00 +28°C° 0 mm 1 mps 748 mmHg 68%
    23:00 +27°C° 0 mm 1 mps 748 mmHg 68%

    Tomorrow, 27 June, Thursday

    Time Temperature Precipitation Wind Pressure Humidity
    00:00 +27°C° 0 mm 1 mps 748 mmHg 68%
    01:00 +27°C° 0 mm 1 mps 747 mmHg 67%
    02:00 +26°C° 0 mm 1 mps 747 mmHg 69%
    03:00 +26°C° 0 mm 2 mps 747 mmHg 71%
    04:00 +25°C° 0 mm 2 mps 747 mmHg 73%
    05:00 +26°C° 0 mm 3 mps 747 mmHg 71%
    06:00 +27°C° 0 mm 3 mps 747 mmHg 69%
    07:00 +28°C° 0 mm 4 mps 747 mmHg 67%
    08:00 +29°C° 0 mm 4 mps 747 mmHg 65%
    09:00 +30°C° 0 mm 5 mps 747 mmHg 62%
    10:00 +32°C° 0 mm 5 mps 747 mmHg 60%
    11:00 +32°C° 0.1 mm 5 mps 747 mmHg 59%
    12:00 +32°C° 0.1 mm 5 mps 746 mmHg 58%
    13:00 +33°C° 0.1 mm 5 mps 746 mmHg 58%
    14:00 +32°C° 0.3 mm 5 mps 746 mmHg 56%
    15:00 +32°C° 0.3 mm 6 mps 746 mmHg 54%
    16:00 +30°C° 0.3 mm 6 mps 746 mmHg 53%
    17:00 +28°C° 0 mm 6 mps 746 mmHg 51%
    18:00 +27°C° 0 mm 5 mps 745 mmHg 49%
    19:00 +25°C° 0 mm 5 mps 745 mmHg 47%
    20:00 +23°C° 0 mm 5 mps 746 mmHg 50%
    21:00 +21°C° 0 mm 4 mps 746 mmHg 53%
    22:00 +20°C° 0 mm 3 mps 747 mmHg 56%
    23:00 +19°C° 0 mm 3 mps 747 mmHg 58%

    Day after tomorrow, 28 June, Friday

    Time Temperature Precipitation Wind Pressure Humidity
    00:00 +19°C° 0 mm 3 mps 747 mmHg 59%
    01:00 +18°C° 0 mm 3 mps 747 mmHg 61%
    02:00 +18°C° 0 mm 3 mps 747 mmHg 64%
    03:00 +17°C° 0 mm 3 mps 747 mmHg 68%
    04:00 +17°C° 0 mm 3 mps 747 mmHg 71%
    05:00 +18°C° 0 mm 4 mps 747 mmHg 70%
    06:00 +18°C° 0 mm 4 mps 747 mmHg 68%
    07:00 +19°C° 0 mm 4 mps 747 mmHg 67%
    08:00 +20°C° 0 mm 4 mps 747 mmHg 62%
    09:00 +21°C° 0 mm 4 mps 747 mmHg 58%
    10:00 +23°C° 0 mm 4 mps 747 mmHg 53%
    11:00 +23°C° 0 mm 4 mps 747 mmHg 50%
    12:00 +25°C° 0 mm 4 mps 747 mmHg 47%
    13:00 +26°C° 0 mm 4 mps 747 mmHg 44%
    14:00 +26°C° 0 mm 4 mps 747 mmHg 45%
    15:00 +26°C° 0 mm 4 mps 747 mmHg 46%
    16:00 +26°C° 0 mm 4 mps 746 mmHg 47%
    17:00 +25°C° 0 mm 4 mps 747 mmHg 52%
    18:00 +24°C° 0 mm 3 mps 747 mmHg 57%
    19:00 +22°C° 0 mm 3 mps 747 mmHg 62%
    20:00 +21°C° 0 mm 2 mps 747 mmHg 65%
    21:00 +20°C° 0 mm 2 mps 747 mmHg 68%
    22:00 +19°C° 0 mm 2 mps 748 mmHg 71%
    23:00 +18°C° 0 mm 2 mps 748 mmHg 73%

    29 June, Saturday

    Time Temperature Precipitation Wind Pressure Humidity
    00:00 +19°C° 0 mm 1 mps 748 mmHg 75%
    01:00 +18°C° 0 mm 1 mps 748 mmHg 77%
    02:00 +18°C° 0 mm 1 mps 748 mmHg 78%
    03:00 +16°C° 0 mm 1 mps 748 mmHg 79%
    04:00 +16°C° 0 mm 1 mps 747 mmHg 80%
    05:00 +18°C° 0 mm 1 mps 747 mmHg 75%
    06:00 +20°C° 0 mm 1 mps 747 mmHg 70%
    07:00 +21°C° 0 mm 1 mps 747 mmHg 65%
    08:00 +23°C° 0 mm 1 mps 747 mmHg 59%
    09:00 +24°C° 0 mm 2 mps 747 mmHg 53%
    10:00 +26°C° 0 mm 2 mps 748 mmHg 47%
    11:00 +26°C° 0 mm 2 mps 747 mmHg 44%
    12:00 +27°C° 0 mm 2 mps 747 mmHg 41%
    13:00 +28°C° 0 mm 3 mps 747 mmHg 38%
    14:00 +28°C° 0 mm 2 mps 747 mmHg 37%
    15:00 +28°C° 0 mm 2 mps 746 mmHg 37%
    16:00 +28°C° 0 mm 2 mps 746 mmHg 36%
    17:00 +27°C° 0 mm 2 mps 746 mmHg 41%
    18:00 +26°C° 0 mm 2 mps 746 mmHg 46%
    19:00 +25°C° 0 mm 2 mps 746 mmHg 51%
    20:00 +23°C° 0 mm 1 mps 746 mmHg 53%
    21:00 +22°C° 0 mm 1 mps 746 mmHg 55%
    22:00 +21°C° 0 mm 1 mps 747 mmHg 56%
    23:00 +21°C° 0 mm 1 mps 746 mmHg 58%

    30 June, Sunday

    Time Temperature Precipitation Wind Pressure Humidity
    00:00 +20°C° 0 mm 1 mps 746 mmHg 59%
    01:00 +20°C° 0 mm 1 mps 746 mmHg 61%
    02:00 +19°C° 0 mm 1 mps 746 mmHg 63%
    03:00 +19°C° 0 mm 1 mps 746 mmHg 65%
    04:00 +18°C° 0 mm 1 mps 746 mmHg 67%
    05:00 +20°C° 0 mm 1 mps 746 mmHg 66%
    06:00 +20°C° 0 mm 2 mps 746 mmHg 64%
    07:00 +21°C° 0 mm 2 mps 746 mmHg 62%
    08:00 +24°C° 0 mm 3 mps 746 mmHg 59%
    09:00 +26°C° 0 mm 3 mps 746 mmHg 55%
    10:00 +28°C° 0 mm 4 mps 746 mmHg 52%
    11:00 +29°C° 0 mm 4 mps 746 mmHg 49%
    12:00 +30°C° 0 mm 5 mps 746 mmHg 45%
    13:00 +32°C° 0 mm 5 mps 746 mmHg 42%
    14:00 +33°C° 0 mm 5 mps 745 mmHg 42%
    15:00 +33°C° 0 mm 5 mps 745 mmHg 42%
    16:00 +33°C° 0 mm 5 mps 745 mmHg 43%
    17:00 +32°C° 0 mm 4 mps 745 mmHg 48%
    18:00 +29°C° 0 mm 4 mps 745 mmHg 54%
    19:00 +28°C° 0 mm 4 mps 745 mmHg 59%
    20:00 +27°C° 0 mm 3 mps 745 mmHg 63%
    21:00 +26°C° 0 mm 2 mps 745 mmHg 66%
    22:00 +24°C° 0 mm 2 mps 746 mmHg 70%
    23:00 +24°C° 0 mm 2 mps 746 mmHg 71%

    1 July, Monday

    Time Temperature Precipitation Wind Pressure Humidity
    00:00 +24°C° 0 mm 1 mps 745 mmHg 72%
    01:00 +23°C° 0 mm 1 mps 745 mmHg 73%
    02:00 +23°C° 0 mm 1 mps 745 mmHg 75%
    03:00 +23°C° 0 mm 1 mps 745 mmHg 77%
    04:00 +22°C° 0 mm 1 mps 745 mmHg 78%
    05:00 +24°C° 0 mm 1 mps 745 mmHg 74%
    06:00 +25°C° 0 mm 1 mps 745 mmHg 70%
    07:00 +27°C° 0 mm 1 mps 745 mmHg 65%
    08:00 +28°C° 0 mm 1 mps 745 mmHg 60%
    09:00 +30°C° 0 mm 1 mps 745 mmHg 54%
    10:00 +32°C° 0 mm 1 mps 745 mmHg 48%
    11:00 +33°C° 0 mm 1 mps 745 mmHg 45%
    12:00 +36°C° 0 mm 2 mps 745 mmHg 42%
    13:00 +37°C° 0 mm 2 mps 744 mmHg 39%
    14:00 +37°C° 0 mm 2 mps 744 mmHg 38%
    15:00 +37°C° 0 mm 3 mps 744 mmHg 37%
    16:00 +37°C° 0 mm 3 mps 743 mmHg 37%
    17:00 +36°C° 0 mm 3 mps 743 mmHg 42%
    18:00 +34°C° 0 mm 3 mps 743 mmHg 48%
    19:00 +31°C° 0 mm 3 mps 743 mmHg 54%
    20:00 +30°C° 0.2 mm 3 mps 743 mmHg 59%
    21:00 +29°C° 0.2 mm 3 mps 743 mmHg 64%
    22:00 +28°C° 0.2 mm 3 mps 743 mmHg 69%
    23:00 +28°C° 0 mm 3 mps 743 mmHg 70%
    Show more